Ogallala, NE

2:15 PM MDT on April 21, 2018 (GMT -0600)
Searle

Weather History for KOGA - June, 2012

Change the Weather History Date:

Wednesday, June 13, 2012

  Actual Average Record
Temperature  
Mean Temperature 78 °F -  
Max Temperature 97 °F 83 °F 100 °F (1956)
Min Temperature 58 °F 53 °F 37 °F (2008)
Cooling Degree Days 12    
Growing Degree Days 28 (Base 50)    
Moisture  
Dew Point 46 °F    
Average Humidity 36    
Maximum Humidity 71    
Minimum Humidity 10    
Precipitation  
Precipitation 0.00 in - - ()
Sea Level Pressure  
Sea Level Pressure 29.81 in    
Wind  
Wind Speed 9 mph (South)    
Max Wind Speed 16 mph    
Max Gust Speed 25 mph    
Visibility 10 miles    
Events      
Averages and records for this station are not official NWS values.
T = Trace of Precipitation, MM = Missing Value Source: NWS Daily Summary

Daily Weather History Graph

Daily Weather History Graph

Search for Another Location

Airport or City:

Astronomy

Jun. 13, 2012 Rise Set
Actual Time 5:13 AM MDT 8:20 PM MDT
Civil Twilight 4:40 AM MDT 8:54 PM MDT
Nautical Twilight 3:57 AM MDT 9:37 PM MDT
Astronomical Twilight 3:06 AM MDT 10:28 PM MDT
Moon 1:30 AM MDT (6/13) 3:07 PM MDT (6/13)
Length of Visible Light 16h 14m
Length of Day
15h 06m
Waning Crescent, 28% of the Moon is Illuminated
Jun 13
Waning Crescent
Jun 19
New
Jun 26
First Quarter
Jul 3
Full
Jul 10
Last Quarter

Hourly Weather History & Observations

Time (MDT) Temp. Dew Point Humidity Pressure Visibility Wind Dir Wind Speed Gust Speed Precip Events Conditions
12:15 AM 61.3 °F 49.3 °F 65% 29.99 in 10.0 mi East 8.1 mph - N/A   Clear
12:35 AM 60.8 °F 49.3 °F 66% 29.99 in 10.0 mi ESE 6.9 mph - N/A   Clear
12:55 AM 59.7 °F 49.1 °F 68% 29.99 in 10.0 mi ESE 5.8 mph - N/A   Clear
1:15 AM 58.6 °F 49.1 °F 71% 29.99 in 10.0 mi East 5.8 mph - N/A   Clear
1:35 AM 58.8 °F 48.4 °F 68% 29.98 in 10.0 mi East 5.8 mph - N/A   Clear
2:15 AM 58.5 °F 48.2 °F 69% 29.97 in 10.0 mi East 3.5 mph - N/A   Clear
2:35 AM 59.9 °F 47.7 °F 64% 29.97 in 10.0 mi SSE 4.6 mph - N/A   Clear
2:55 AM 59.9 °F 47.1 °F 63% 29.96 in 10.0 mi South 5.8 mph - N/A   Clear
3:15 AM 59.5 °F 46.8 °F 63% 29.96 in 10.0 mi South 4.6 mph - N/A   Clear
3:35 AM 59.0 °F 46.4 °F 63% 29.95 in 10.0 mi South 5.8 mph - N/A   Clear
6:35 AM 60.4 °F 48.0 °F 64% 29.95 in 10.0 mi West 5.8 mph - N/A   Clear
6:55 AM 61.5 °F 48.7 °F 63% 29.95 in 10.0 mi SSW 6.9 mph - N/A   Clear
7:15 AM 63.0 °F 49.6 °F 62% 29.95 in 10.0 mi SSW 5.8 mph - N/A   Clear
7:35 AM 64.9 °F 50.5 °F 60% 29.95 in 10.0 mi SSW 6.9 mph - N/A   Clear
7:55 AM 66.7 °F 50.9 °F 57% 29.94 in 10.0 mi South 8.1 mph - N/A   Clear
8:15 AM 69.1 °F 51.8 °F 54% 29.94 in 10.0 mi SSW 12.7 mph - N/A   Clear
8:35 AM 70.3 °F 52.5 °F 53% 29.93 in 10.0 mi SSW 9.2 mph - N/A   Clear
8:55 AM 72.5 °F 52.7 °F 50% 29.92 in 10.0 mi SSW 12.7 mph 17.3 mph N/A   Clear
9:15 AM 74.3 °F 52.5 °F 46% 29.91 in 10.0 mi SSW 15.0 mph 18.4 mph N/A   Clear
9:55 AM 77.0 °F 51.6 °F 41% 29.90 in 10.0 mi SSW 11.5 mph 17.3 mph N/A   Clear
10:15 AM 79.2 °F 51.4 °F 38% 29.89 in 10.0 mi SSW 15.0 mph 20.7 mph N/A   Clear
10:55 AM 82.2 °F 50.4 °F 33% 29.88 in 10.0 mi SSW 11.5 mph - N/A   Clear
11:15 AM 82.4 °F 51.1 °F 34% 29.87 in 10.0 mi South 13.8 mph 18.4 mph N/A   Clear
11:35 AM 83.5 °F 50.9 °F 32% 29.86 in 10.0 mi SSW 15.0 mph 19.6 mph N/A   Clear
11:55 AM 85.5 °F 51.1 °F 30% 29.84 in 10.0 mi SW 12.7 mph 20.7 mph N/A   Clear
12:15 PM 86.0 °F 51.3 °F 30% 29.84 in 10.0 mi SSW 13.8 mph 20.7 mph N/A   Clear
12:35 PM 88.0 °F 51.3 °F 28% 29.83 in 10.0 mi SSW 13.8 mph 18.4 mph N/A   Clear
12:55 PM 88.7 °F 50.0 °F 26% 29.82 in 10.0 mi SSW 15.0 mph 23.0 mph N/A   Clear
1:15 PM 89.6 °F 49.8 °F 25% 29.81 in 10.0 mi SSW 13.8 mph 25.3 mph N/A   Clear
1:35 PM 91.6 °F 48.2 °F 22% 29.79 in 10.0 mi SSW 13.8 mph 19.6 mph N/A   Clear
1:55 PM 92.5 °F 47.1 °F 21% 29.78 in 10.0 mi SW 10.4 mph 17.3 mph N/A   Clear
2:15 PM 93.9 °F 42.1 °F 17% 29.77 in 10.0 mi SSW 8.1 mph 18.4 mph N/A   Clear
2:35 PM 95.2 °F 38.1 °F 14% 29.76 in 10.0 mi South 5.8 mph - N/A   Clear
2:55 PM 94.8 °F 37.8 °F 14% 29.76 in 10.0 mi SSE 4.6 mph - N/A   Clear
3:15 PM 95.9 °F 37.0 °F 13% 29.75 in 10.0 mi South 8.1 mph 16.1 mph N/A   Clear
3:35 PM 96.4 °F 34.7 °F 11% 29.74 in 10.0 mi SSE 8.1 mph 16.1 mph N/A   Clear
3:55 PM 97.7 °F 33.3 °F 10% 29.74 in 10.0 mi South 12.7 mph 17.3 mph N/A   Clear
4:15 PM 96.4 °F 32.0 °F 10% 29.73 in 10.0 mi SSW 8.1 mph 16.1 mph N/A   Clear
4:35 PM 97.0 °F 32.5 °F 10% 29.72 in 10.0 mi South 10.4 mph 16.1 mph N/A   Clear
4:55 PM 96.4 °F 33.3 °F 11% 29.71 in 10.0 mi South 11.5 mph 17.3 mph N/A   Clear
5:15 PM 96.4 °F 33.6 °F 11% 29.70 in 10.0 mi SSE 12.7 mph 17.3 mph N/A   Clear
5:35 PM 96.3 °F 33.6 °F 11% 29.70 in 10.0 mi SSE 9.2 mph - N/A   Clear
5:55 PM 95.7 °F 32.9 °F 11% 29.70 in 10.0 mi South 9.2 mph 18.4 mph N/A   Clear
6:15 PM 93.6 °F 32.2 °F 11% 29.69 in 10.0 mi SSE 6.9 mph 12.7 mph N/A   Clear
6:35 PM 92.1 °F 34.3 °F 13% 29.68 in 10.0 mi SSE 9.2 mph - N/A   Clear
6:55 PM 92.3 °F 36.5 °F 14% 29.68 in 10.0 mi SSE 8.1 mph - N/A   Clear
7:15 PM 91.4 °F 37.4 °F 15% 29.68 in 10.0 mi SSE 10.4 mph 16.1 mph N/A   Clear
7:35 PM 89.4 °F 38.7 °F 17% 29.68 in 10.0 mi SSE 9.2 mph - N/A   Clear
7:55 PM 86.9 °F 39.4 °F 19% 29.68 in 10.0 mi SE 9.2 mph - N/A   Clear
8:15 PM 84.7 °F 39.4 °F 20% 29.68 in 10.0 mi SSE 12.7 mph - N/A   Clear
8:35 PM 83.3 °F 47.1 °F 28% 29.68 in 10.0 mi SSE 13.8 mph 20.7 mph N/A   Clear
8:55 PM 82.4 °F 50.2 °F 33% 29.68 in 10.0 mi South 12.7 mph - N/A   Clear
9:15 PM 81.5 °F 50.5 °F 34% 29.70 in 10.0 mi South 13.8 mph - N/A   Clear
9:35 PM 81.7 °F 50.0 °F 33% 29.70 in 10.0 mi South 13.8 mph 21.9 mph N/A   Clear
9:55 PM 80.8 °F 50.9 °F 35% 29.70 in 10.0 mi South 15.0 mph - N/A   Clear
10:15 PM 80.2 °F 51.6 °F 37% 29.70 in 10.0 mi South 16.1 mph 20.7 mph N/A   Clear
10:35 PM 78.4 °F 52.7 °F 41% 29.70 in 10.0 mi South 16.1 mph 19.6 mph N/A   Clear
10:55 PM 77.5 °F 54.1 °F 44% 29.71 in 10.0 mi South 12.7 mph 17.3 mph N/A   Clear
11:15 PM 77.0 °F 55.0 °F 47% 29.71 in 10.0 mi South 11.5 mph 17.3 mph N/A   Clear
11:35 PM 75.4 °F 55.8 °F 50% 29.71 in 10.0 mi South 10.4 mph - N/A   Clear
11:55 PM 74.8 °F 56.3 °F 52% 29.71 in 10.0 mi South 12.7 mph - N/A   Clear